Simultaneous Nadir Overpasses (SNOs) Predictions

Prediction of SNOs between METOP-B and TERRA Satellite Orbit:

Table of predicted SNOs for the next 14.0 days since TLE Epoch: 10/20/2018
Index Date (METOP-B) Time (METOP-B) Lat,Lon (METOP-B) SZA (METOP-B ) Date (TERRA) Time (TERRA) Lat,Lon (TERRA) SZA (TERRA ) Distance(km) Time Diff (sec)
1 10/20/2018 16:40:32 -81.31, 156.93 85.09 10/20/2018 16:41:09 -81.31, 156.78 85.09 2.78 37
2 10/20/2018 17:31:12 81.32, -35.52 94.96 10/20/2018 17:30:35 81.31, -35.46 94.94 1.25 37
3 10/23/2018 12:14:53 -81.32,-136.43 84.06 10/23/2018 12:15:21 -81.32,-136.46 84.04 0.77 28
4 10/23/2018 13:05:33 81.32, 31.12 95.99 10/23/2018 13:04:47 81.33, 31.27 95.99 2.57 46
5 10/26/2018 07:49:15 -81.32, -70.20 83.10 10/26/2018 07:49:34 -81.32, -70.12 83.08 1.31 19
6 10/26/2018 08:39:54 81.32, 97.75 96.99 10/26/2018 08:39:00 81.32, 97.57 96.94 3.04 54
7 10/29/2018 03:23:36 -81.31, -3.99 82.18 10/29/2018 03:23:46 -81.31, -3.82 82.16 2.76 10
8 10/29/2018 04:14:15 81.32, 163.97 97.92 10/29/2018 04:13:12 81.31, 163.84 97.86 2.57 63
9 10/31/2018 22:07:39 81.10,-113.57 97.65 10/31/2018 22:08:52 80.81,-112.41 97.58 38.57 73
10 10/31/2018 22:57:56 -81.32, 62.99 81.19 10/31/2018 22:57:58 -81.32, 62.81 81.21 3.09 2




NCC Satellite Simultaneous Nadir Overpasses (SNOs) Prediction Service
